Weather History for KPIE - April, 2014

Change the Weather History Date:

Saturday, April 5, 2014

  Actual Average Record
Temperature  
Mean Temperature 72 °F -  
Max Temperature 82 °F 78 °F 88 °F (1954)
Min Temperature 63 °F 63 °F 48 °F (1987)
Cooling Degree Days 8    
Growing Degree Days 22 (Base 50)    
Moisture  
Dew Point 62 °F    
Average Humidity 80    
Maximum Humidity 93    
Minimum Humidity 39    
Precipitation  
Precipitation 0.00 in - - ()
Sea Level Pressure  
Sea Level Pressure 30.01 in    
Wind  
Wind Speed 4 mph (ESE)    
Max Wind Speed 9 mph    
Max Gust Speed -    
Visibility 7 miles    
Events Fog    
Averages and records for this station are not official NWS values.
T = Trace of Precipitation, MM = Missing Value Source: NWS Daily Summary

Daily Weather History Graph

Daily Weather History Graph

Search for Another Location

Airport or City:

Trip Planner

Search our weather history database for the weather conditions in past years. The results will help you decide how hot, cold, wet, or windy it might be!

Date:

Astronomy

Apr. 05, 2014 Rise Set
Actual Time 7:16 AM EDT 7:50 PM EDT
Civil Twilight 6:52 AM EDT 8:14 PM EDT
Nautical Twilight 6:25 AM EDT 8:42 PM EDT
Astronomical Twilight 5:57 AM EDT 9:10 PM EDT
Moon 11:41 AM EDT (4/5) 12:42 AM EDT (4/5)
Length of Visible Light 13h 21m
Length of Day
12h 34m
Waxing Crescent, 34% of the Moon is Illuminated
Apr 5
Waxing Crescent
Apr 7
First Quarter
Apr 15
Full
Apr 22
Last Quarter
Apr 29
New

Hourly Weather History & Observations

Time (EDT) Temp. Heat Index Dew Point Humidity Pressure Visibility Wind Dir Wind Speed Gust Speed Precip Events Conditions
12:53 AM 66.0 °F - 63.0 °F 90% 30.00 in 8.0 mi South 6.9 mph - N/A   Clear
1:53 AM 64.9 °F - 63.0 °F 93% 29.99 in 10.0 mi WSW 4.6 mph - N/A   Clear
2:53 AM 64.0 °F - 62.1 °F 93% 29.99 in 9.0 mi Calm Calm - N/A   Clear
3:24 AM 64.0 °F - 61.0 °F 90% 29.98 in 1.0 mi Calm Calm - N/A   Mist
3:31 AM 63.0 °F - 61.0 °F 93% 29.97 in 0.5 mi Calm Calm - N/A Fog Fog
3:35 AM 63.0 °F - 61.0 °F 93% 29.97 in 1.5 mi Calm Calm - N/A   Partly Cloudy
3:42 AM 63.0 °F - 61.0 °F 93% 29.98 in 2.5 mi Calm Calm - N/A   Partly Cloudy
3:51 AM 64.4 °F - 60.8 °F 88% 29.99 in 8.0 mi West 4.6 mph - N/A   Partly Cloudy
3:53 AM 64.0 °F - 61.0 °F 90% 29.99 in 9.0 mi West 4.6 mph - N/A   Partly Cloudy
4:53 AM 64.0 °F - 61.0 °F 90% 29.99 in 4.0 mi Calm Calm - N/A   Clear
4:55 AM 63.0 °F - 61.0 °F 93% 29.99 in 1.2 mi Calm Calm - N/A   Clear
5:02 AM 63.0 °F - 61.0 °F 93% 29.99 in 0.5 mi SSE 3.5 mph - N/A Fog Fog
5:11 AM 63.0 °F - 60.1 °F 90% 29.99 in 1.2 mi Calm Calm - N/A   Partly Cloudy
5:14 AM 63.0 °F - 61.0 °F 93% 29.99 in 4.0 mi Calm Calm - N/A   Partly Cloudy
5:53 AM 63.0 °F - 61.0 °F 93% 30.01 in 7.0 mi ESE 3.5 mph - N/A   Clear
6:53 AM 64.9 °F - 62.1 °F 90% 30.01 in 7.0 mi ESE 4.6 mph - N/A   Clear
7:53 AM 64.9 °F - 63.0 °F 93% 30.03 in 8.0 mi SE 4.6 mph - N/A   Clear
8:53 AM 70.0 °F - 68.0 °F 93% 30.04 in 7.0 mi East 3.5 mph - N/A   Scattered Clouds
9:13 AM 71.1 °F - 68.0 °F 90% 30.05 in 7.0 mi ENE 3.5 mph - N/A   Mostly Cloudy
9:53 AM 72.0 °F - 66.9 °F 84% 30.06 in 9.0 mi NE 3.5 mph - N/A   Mostly Cloudy
10:00 AM 73.0 °F - 66.9 °F 81% 30.06 in 9.0 mi ENE 3.5 mph - N/A   Partly Cloudy
10:53 AM 75.0 °F - 68.0 °F 79% 30.06 in 9.0 mi NNE 6.9 mph - N/A   Scattered Clouds
11:53 AM 75.0 °F - 66.9 °F 76% 30.06 in 10.0 mi ENE 8.1 mph - N/A   Clear
12:53 PM 75.9 °F - 64.9 °F 69% 30.06 in 10.0 mi ENE 9.2 mph - N/A   Partly Cloudy
1:53 PM 79.0 °F - 62.1 °F 56% 30.05 in 10.0 mi East 5.8 mph - N/A   Clear
2:53 PM 81.0 °F 81.3 °F 59.0 °F 47% 30.03 in 10.0 mi ENE 5.8 mph - N/A   Clear
3:53 PM 80.1 °F 80.7 °F 59.0 °F 48% 30.01 in 10.0 mi NE 6.9 mph - N/A   Clear
4:53 PM 81.0 °F 80.7 °F 55.0 °F 41% 30.00 in 10.0 mi Variable 3.5 mph - N/A   Clear
5:53 PM 82.0 °F 81.4 °F 55.0 °F 39% 29.99 in 10.0 mi Calm Calm - N/A   Clear
6:53 PM 79.0 °F - 59.0 °F 50% 30.00 in 10.0 mi SW 8.1 mph - N/A   Clear
7:53 PM 75.0 °F - 63.0 °F 66% 30.01 in 10.0 mi SW 8.1 mph - N/A   Clear
8:53 PM 73.0 °F - 64.0 °F 73% 30.02 in 10.0 mi SW 6.9 mph - N/A   Clear
9:53 PM 73.0 °F - 64.0 °F 73% 30.03 in 10.0 mi SSW 4.6 mph - N/A   Clear
10:53 PM 71.1 °F - 64.9 °F 81% 30.05 in 10.0 mi NNW 3.5 mph - N/A   Clear
11:53 PM 69.1 °F - 64.0 °F 84% 30.05 in 10.0 mi WNW 3.5 mph - N/A   Clear